Regional Weather Roundup
Issued by NWS

Home | Current Version | Previous Version | Text Only | Print | Product List | Glossary Off
Versions: 1 2 3 4 5 6 7 8 9 10 11 12 13 14 15 16 17 18 19 20 21 22 23 24 25 26 27 28 29 30 31 32 33 34 35 36 37 38 39 40 41 42 43 44 45 46 47 48 49 50

000
ASUS43 KMPX 110801
RWRMN
WEATHER ROUNDUP FOR MINNESOTA
NATIONAL WEATHER SERVICE TWIN CITIES/CHANHASSEN MN
200 AM CST MON DEC 11 2017


NOTE: "FAIR" INDICATES FEW OR NO CLOUDS BELOW 12,000 FEET WITH NO
SIGNIFICANT WEATHER AND/OR OBSTRUCTIONS TO VISIBILITY. N/A MEANS
CURRENT SKY AND/OR WEATHER CONDITIONS ARE NOT AVAILABLE.

MNZ060>063-068>070-110900-
   Twin Cities Metro

CITY           SKY/WX    TMP DP  RH WIND       PRES   REMARKS
TWIN CITIES    LGT SNOW  25  25 100 SE6       29.88F FOG     WCI  18
ST PAUL        LGT SNOW  24  23  96 SE7       29.90F VSB 3/4 WCI  16
CRYSTAL        LGT SNOW  26  22  84 SE7       29.85F FOG     WCI  18
BLAINE         MIX PCPN  27  27 100 SE7       29.84F WCI  19
LAKEVILLE      LGT SNOW  25  25 100 SE3       29.88F
EDEN PRAIRIE   CLOUDY    27  24  89 SE10      29.84F FOG     WCI  17
SOUTH ST PAUL  LGT SNOW  25  25  97 SE3       29.89F VSB 1
LAKE ELMO      LGT SNOW  27  25  93 S6        29.89F WCI  20
$$
MNZ001>005-007-008-013>017-022>024-027-028-110900-
   Northwest Minnesota

CITY           SKY/WX    TMP DP  RH WIND       PRES   REMARKS
BEMIDJI        CLOUDY    23  22  94 S7        29.70F WCI  15
HALLOCK        CLOUDY    28  27  93 S5        29.67S WCI  23
ROSEAU         CLOUDY    25  19  80 S7        29.66F WCI  17
WARROAD        LGT SNOW  21  18  86 SE5       29.68F WCI  15
CROOKSTON      CLOUDY    30  28  93 SW7       29.69F WCI  23
FOSSTON        MOCLDY    25  25 100 S10       29.69F WCI  15
DETROIT LAKES  PTCLDY    30  28  93 SW6       29.74F WCI  24
MOORHEAD       LGT RAIN  32  28  86 CALM      29.72F
PARK RAPIDS    CLOUDY    25  22  88 S8        29.71F WCI  16
MAHNOMEN       CLOUDY    27  26  96 S12       29.70F WCI  16
$$
MNZ006-009>011-018-025>026-110900-
   North Central Minnesota

CITY           SKY/WX    TMP DP  RH WIND       PRES   REMARKS
BAUDETTE       FLURRIES  20  18  92 SE9       29.69F WCI   9
FLAG ISLAND    LGT SNOW  19  18  93 S14       29.68F WCI   6
INTL FALLS     LGT SNOW  16  12  84 SE8       29.73F VSB 3/4 WCI   5
WASKISH        CLOUDY    21  19  93 SE6       29.71F WCI  14
GRAND RAPIDS   FLURRIES  20  18  92 S10       29.77F WCI   9
ORR            LGT SNOW  14  10  85 SE3       29.73F
COOK           LGT SNOW  16  14  93 S6        29.77F WCI   7
WALKER         CLOUDY    24  22  92 S8        29.72F WCI  14
$$
MNZ012-019>021-037-110900-
   Northeast Minnesota

CITY           SKY/WX    TMP DP  RH WIND       PRES   REMARKS
DULUTH         LGT SNOW  16  14  92 S8        29.81F VSB 1   WCI   5
ELY            FLURRIES  12  10  92 S7        29.79F WCI   2
HIBBING        LGT SNOW  16  14  92 SE7       29.78F FOG     WCI   6
EVELETH        LGT SNOW  14  10  85 S5        29.81F WCI   6
DULUTH HARBOR  LGT SNOW  19  16  86 CALM      29.89F
TWO HARBORS    LGT SNOW  18  12  79 CALM      29.83F
G MARAIS ARPRT CLOUDY     9   3  78 S5        29.79F WCI   0
$$
MNZ029>031-032-039>041-046>048-054>057-064-110900-
   West Central Minnesota

CITY           SKY/WX    TMP DP  RH WIND       PRES   REMARKS
FERGUS FALLS   CLOUDY    28  27  93 S6        29.78F WCI  22
MORRIS         CLEAR     28  25  86 S6        29.77F WCI  22
ALEXANDRIA     MOCLDY    27  24  89 SW6       29.78F WCI  20
ELBOW LAKE     FAIR      26  24  92 S7        29.76F WCI  18
WADENA         PTCLDY    25  25 100 S8        29.74F WCI  16
GLENWOOD       CLEAR     27  25  93 SW5       29.79F WCI  21
BENSON         CLOUDY    28  25  86 SW3       29.81F
ORTONVILLE     CLOUDY    36  27  69 W5        29.79F
MADISON        CLOUDY    39  30  70 W6        29.81F
WILLMAR        FAIR      30  27  86 CALM      29.81F
$$
MNZ033>034-036-042>043-049>051-058-059-110900-
   Central Minnesota

CITY           SKY/WX    TMP DP  RH WIND       PRES   REMARKS
ST CLOUD       CLOUDY    26  25  96 S9        29.82R WCI  17
SAUK CENTRE    FAIR      25  23  93 S8        29.78F WCI  16
PAYNESVILLE    CLOUDY    28  26  95 S8        29.79F WCI  20
AITKIN         LGT SNOW  21  19  93 SE6       29.77F WCI  14
PINE RIVER     CLOUDY    23  19  86 S7        29.79F WCI  15
BRAINERD       CLOUDY    26  23  88 S7        29.79F WCI  18
STAPLES        CLOUDY    25  25 100 S6        29.76F WCI  18
LONG PRAIRIE   FAIR      23  23 100 S3        29.78F FOG
LITTLE FALLS   CLOUDY    27  23  86 S3        29.80F
LITCHFIELD     CLOUDY    30  27  86 CALM      29.82F
BUFFALO        CLOUDY    27  25  93 S3        29.85F
MAPLE LAKE     CLOUDY    28  28  97 S5        29.84F WCI  23
HUTCHINSON     CLOUDY    31  28  88 SE6       29.84F WCI  25
$$
MNZ037-044-045-052-053-110900-
   East Central Minnesota

CITY           SKY/WX    TMP DP  RH WIND       PRES   REMARKS
PRINCETON      MIX PCPN  27  25  93 S6        29.83F WCI  20
MORA           MIX PCPN  25  23  93 S5        29.84F WCI  19
CAMBRIDGE      LGT SNOW  27  21  80 SE7       29.83F WCI  19
RUSH CITY      LGT SNOW  23  21  93 SE6       29.84F WCI  15
MOOSE LAKE     LGT SNOW  21  19  93 SE3       29.80F VSB 1
HINCKLEY       LGT SNOW  23  21  93 SE5       29.83F WCI  17
CLOQUET        LGT SNOW  18  14  86 E6        29.81F WCI   9
MCGREGOR       CLOUDY    23  21  93 S7        29.79F VSB 1   WCI  15
$$
MNZ071>073-080-081-089-090-097-098-110900-
   Southwest Minnesota

CITY           SKY/WX    TMP DP  RH WIND       PRES   REMARKS
MONTEVIDEO     CLOUDY    34  27  75 W7        29.81F WCI  28
GRANITE FALLS  CLOUDY    34  29  83 SW6       29.84F WCI  28
CANBY          CLOUDY    42  29  59 NW7       29.81F
MARSHALL       CLOUDY    38  28  67 W9        29.82F
REDWOOD FALLS  CLOUDY    34  27  75 SW8       29.83F WCI  27
OLIVIA         CLOUDY    32  28  86 S5        29.81F WCI  27
PIPESTONE      CLEAR     32  27  80 W10       29.85F WCI  24
WINDOM           N/A     34  19  55 SW7       29.86F WCI  28
WORTHINGTON    CLOUDY    34  26  72 SW15      29.86F WCI  24
JACKSON        CLOUDY    34  28  80 MISG      29.87F
TRACY          CLOUDY    38  30  72 W7        29.83F
$$
MNZ065>067-074>077-082>085-091>093-110900-
   South Central Minnesota

CITY           SKY/WX    TMP DP  RH WIND       PRES   REMARKS
MANKATO        CLOUDY    31  27  85 S8        29.86F WCI  23
NEW ULM        CLOUDY    30  27  86 S8        29.84F WCI  23
ST JAMES       CLOUDY    32  28  86 S6        29.87S WCI  26
FAIRMONT       CLOUDY    32  28  85 SW8       29.89R WCI  25
GLENCOE        CLOUDY    30  28  92 CALM      29.84F
FARIBAULT      CLOUDY    28  25  86 SE7       29.87F WCI  21
WASECA         CLOUDY    32  28  86 SE5       29.88F WCI  27
ALBERT LEA     CLOUDY    30  23  74 S5        29.88F WCI  25
$$
MNZ078>079-086>088-094>096-110900-
   Southeast Minnesota

CITY           SKY/WX    TMP DP  RH WIND       PRES   REMARKS
ROCHESTER      CLOUDY    26  23  88 S9        29.89F WCI  17
RED WING       LGT SNOW  27  21  80 S5        29.90F VSB 1   WCI  21
STANTON        FLURRIES  28  25  89 S6        29.86F WCI  22
DODGE CENTER   CLOUDY    27  25  93 S8        29.88F WCI  18
WINONA         LGT SNOW  30  25  80 SE5       29.96F WCI  25
AUSTIN         MOCLDY    27  23  86 S9        29.87F WCI  17
PRESTON        CLOUDY    25  22  87 S8        29.91F WCI  16
$$
ABBREVIATIONS USED IN REMARKS
   TC - TEMPERATURES IN CELSIUS
  WCI - WIND CHILL INDEX
   HX - HEAT INDEX
  VSB - VISIBILITY
$$



USA.gov is the U.S. government's official web portal to all federal, state and local government web resources and services.